• Join FlightAware (Why Join?)
  • Login
  • US Flag 
12:19AM EDT


 

Airport Tracker/Info


-or-


 

Live Flight TrackerFlight Track Log ✈ CHQ6082 ✈ 26-Jul-2013 ✈ KAZO - KDTW

Flight Track Log - Related Links

Times and Time Zones

All times are in EDT time to prevent confusion due to time zone crossing. See the CHQ6082 flight status page for this flight to view local times or setup timezone preferences in your user account.

Time Position Orientation Groundspeed Altitude Reporting Facility
EDT Latitude Longitude Course Direction KTS MPH feet Rate Location/Type
01:47PM 42.1744 -85.4517 114° Southeast 239 275 5,500  Level Chicago Center
01:48PM 42.1600 -85.3583 102° East 249 287 8,500 2,580 Climbing Chicago Center
01:49PM 42.1436 -85.2611 103° East 263 303 10,900 1,200 Climbing Chicago Center
01:50PM 42.1194 -85.1119 102° East 338 389 11,000  Climbing Chicago Center
01:51PM 42.0621 -84.8103 105° East  Level FlightAware Approximate
01:51PM 42.1003 -84.9894 102° East 342 394 11,000  Level Chicago Center
01:52PM 42.0825 -84.8769 102° East 319 367 11,000  Level Chicago Center
01:53PM 42.0633 -84.7683 103° East 305 351 11,000  Level Chicago Center
01:54PM 42.0133 -84.6825 128° Southeast 296 341 11,000  Level Chicago Center
01:55PM 41.9275 -84.6639 171° South 292 336 11,000  Level Chicago Center
01:56PM 41.8483 -84.6411 168° South 291 335 11,000  Level Chicago Center
01:57PM 41.7994 -84.5500 126° Southeast 258 297 11,000  Level Cleveland Center
01:58PM 41.8097 -84.4364 83° East 251 289 11,000  Level Cleveland Center
01:59PM 41.7692 -84.3392 119° Southeast 270 311 11,000  Level Cleveland Center
02:00PM 41.7178 -84.2500 128° Southeast 307 353 11,000  Level Cleveland Center
02:01PM 41.7403 -84.1342 75° East 261 300 11,000  Level Cleveland Center
02:02PM 41.8072 -84.0600 40° Northeast 265 305 11,000  Level Cleveland Center
02:03PM 41.8661 -83.9739 47° Northeast 285 328 11,000  Level Cleveland Center
02:04PM 41.9228 -83.8847 49° Northeast 299 344 11,000  Level Cleveland Center
02:05PM 41.9797 -83.7928 50° Northeast 306 352 11,000  Level Cleveland Center
02:06PM 42.0383 -83.7033 49° Northeast 311 358 11,000  Level Cleveland Center
02:07PM 42.0928 -83.6164 50° Northeast 311 358 11,000  Level Cleveland Center
02:08PM 42.1611 -83.5608 31° Northeast 289 333 11,000  Level Cleveland Center
02:09PM 42.2186 -83.5158 30° Northeast 251 289 11,000 -420 Level Cleveland Center
02:11PM 42.2928 -83.4606 29° Northeast 236 272 10,100 -960 Descending Cleveland Center
02:12PM 42.3542 -83.4239 24° Northeast 235 270 8,900 -1,200 Descending Cleveland Center
02:13PM 42.4133 -83.3956 19° North 219 252 7,700 -1,260 Descending Cleveland Center
02:14PM 42.4764 -83.3675 18° North 205 236 6,300 -1,380 Descending Cleveland Center
02:15PM 42.5028 -83.3178 54° Northeast 202 232 4,900 -1,200 Descending Cleveland Center
02:16PM 42.4833 -83.2522 112° Southeast 178 205 4,000 -480 Descending Cleveland Center
02:17PM 42.4381 -83.2364 166° South 182 209 4,000  Level Cleveland Center
02:18PM 42.3875 -83.2483 190° South 171 197 4,000  Level Cleveland Center